Time,TemperatureF,DewpointF,PressureIn,WindDirection,WindDirectionDegrees,WindSpeedMPH,WindSpeedGustMPH,Humidity,HourlyPrecipIn,Conditions,Clouds,dailyrainin,SoftwareType,DateUTC
2013-02-06 00:02:00,17.0,12.0,-100.00,WNW,290,13.0,19.0,80,0.00,,,0.05,,2013-02-06 00:02:00,
2013-02-06 00:11:00,16.0,10.0,-100.00,WNW,295,10.0,16.0,80,0.00,,,0.05,,2013-02-06 00:11:00,
2013-02-06 00:21:00,15.0,10.0,-100.00,WNW,285,11.0,13.0,81,0.00,,,0.05,,2013-02-06 00:21:00,
2013-02-06 00:32:00,15.0,10.0,-100.00,West,280,9.0,14.0,81,0.00,,,0.05,,2013-02-06 00:32:00,
2013-02-06 00:42:00,15.0,10.0,-100.00,West,275,8.0,12.0,81,0.00,,,0.05,,2013-02-06 00:42:00,
2013-02-06 00:52:00,13.0,9.0,-100.00,WNW,290,10.0,12.0,81,0.00,,,0.05,,2013-02-06 00:52:00,
2013-02-06 01:02:00,13.0,9.0,-100.00,WNW,295,11.0,12.0,81,0.00,,,0.05,,2013-02-06 01:02:00,
2013-02-06 01:11:00,13.0,9.0,-100.00,WNW,295,10.0,12.0,81,0.00,,,0.05,,2013-02-06 01:11:00,
2013-02-06 01:21:00,13.0,9.0,-100.00,NW,305,11.0,12.0,81,0.00,,,0.05,,2013-02-06 01:21:00,
2013-02-06 01:32:00,12.0,7.0,-100.00,NW,305,9.0,12.0,81,0.00,,,0.05,,2013-02-06 01:32:00,
2013-02-06 01:42:00,12.0,7.0,-100.00,WNW,300,11.0,13.0,81,0.00,,,0.05,,2013-02-06 01:42:00,
2013-02-06 01:52:00,11.0,7.0,-100.00,WNW,300,10.0,13.0,81,0.00,,,0.05,,2013-02-06 01:52:00,
2013-02-06 02:01:00,11.0,7.0,-100.00,WNW,295,9.0,12.0,81,0.00,,,0.05,,2013-02-06 02:01:00,
2013-02-06 02:11:00,10.0,5.0,-100.00,NW,305,9.0,11.0,80,0.00,,,0.05,,2013-02-06 02:11:00,
2013-02-06 02:22:00,10.0,5.0,-100.00,WNW,300,9.0,11.0,81,0.00,,,0.05,,2013-02-06 02:22:00,
2013-02-06 02:32:00,10.0,5.0,-100.00,WNW,300,7.0,11.0,81,0.00,,,0.05,,2013-02-06 02:32:00,
2013-02-06 02:42:00,10.0,5.0,-100.00,WNW,285,7.0,9.0,81,0.00,,,0.05,,2013-02-06 02:42:00,
2013-02-06 02:52:00,9.0,3.0,-100.00,WNW,295,6.0,8.0,81,0.00,,,0.05,,2013-02-06 02:52:00,
2013-02-06 03:02:00,8.0,3.0,-100.00,WNW,295,7.0,8.0,81,0.00,,,0.05,,2013-02-06 03:02:00,
2013-02-06 03:12:00,8.0,3.0,-100.00,WNW,285,6.0,8.0,81,0.00,,,0.05,,2013-02-06 03:12:00,
2013-02-06 03:22:00,8.0,3.0,-100.00,WNW,285,3.0,4.0,81,0.00,,,0.05,,2013-02-06 03:22:00,
2013-02-06 03:32:00,8.0,3.0,-100.00,NW,310,2.0,4.0,81,0.00,,,0.05,,2013-02-06 03:32:00,
2013-02-06 03:42:00,8.0,3.0,-100.00,WSW,240,0.0,2.0,82,0.00,,,0.05,,2013-02-06 03:42:00,
2013-02-06 03:52:00,7.0,3.0,-100.00,West,265,1.0,2.0,82,0.00,,,0.05,,2013-02-06 03:52:00,
2013-02-06 04:02:00,8.0,3.0,-100.00,SW,235,2.0,3.0,83,0.00,,,0.05,,2013-02-06 04:02:00,
2013-02-06 04:11:00,8.0,3.0,-100.00,SSW,200,3.0,4.0,83,0.00,,,0.05,,2013-02-06 04:11:00,
2013-02-06 04:21:00,7.0,3.0,-100.00,SSW,200,5.0,6.0,84,0.00,,,0.04,,2013-02-06 04:21:00,
2013-02-06 04:31:00,4.0,0.0,-100.00,SW,225,7.0,7.0,82,0.00,,,0.04,,2013-02-06 04:31:00,
2013-02-06 04:42:00,3.0,0.0,-100.00,SW,235,7.0,8.0,84,0.00,,,0.04,,2013-02-06 04:42:00,
2013-02-06 04:51:00,4.0,1.0,-100.00,WSW,245,2.0,7.0,84,0.00,,,0.04,,2013-02-06 04:51:00,
2013-02-06 05:01:00,5.0,1.0,-100.00,SW,220,2.0,3.0,85,0.00,,,0.04,,2013-02-06 05:01:00,
2013-02-06 05:12:00,-999.0,1.0,-100.00,SSW,210,1.0,3.0,85,0.00,,,0.04,,2013-02-06 05:12:00,
2013-02-06 05:22:00,5.0,1.0,-100.00,SW,215,4.0,6.0,86,0.00,,,0.04,,2013-02-06 05:22:00,
2013-02-06 05:31:00,3.0,0.0,-100.00,SW,230,6.0,6.0,83,0.00,,,0.04,,2013-02-06 05:31:00,
2013-02-06 05:41:00,5.0,1.0,-100.00,SW,225,6.0,7.0,85,0.00,,,0.04,,2013-02-06 05:41:00,
2013-02-06 05:52:00,3.0,0.0,-100.00,SW,230,9.0,9.0,84,0.00,,,0.04,,2013-02-06 05:52:00,
2013-02-06 06:01:00,2.0,-2.0,-100.00,SW,230,8.0,9.0,83,0.00,,,0.04,,2013-02-06 06:01:00,
2013-02-06 06:11:00,2.0,-2.0,-100.00,SW,230,6.0,8.0,83,0.00,,,0.04,,2013-02-06 06:11:00,
2013-02-06 06:21:00,2.0,0.0,-100.00,WSW,250,4.0,7.0,84,0.00,,,0.04,,2013-02-06 06:21:00,
2013-02-06 06:32:00,3.0,0.0,-100.00,WSW,250,3.0,4.0,83,0.00,,,0.04,,2013-02-06 06:32:00,
2013-02-06 06:42:00,2.0,-2.0,-100.00,WSW,240,4.0,5.0,83,0.00,,,0.04,,2013-02-06 06:42:00,
2013-02-06 06:51:00,0.0,-4.0,-100.00,SW,235,6.0,6.0,82,0.00,,,0.04,,2013-02-06 06:51:00,
2013-02-06 07:01:00,0.0,-4.0,-100.00,WSW,240,6.0,6.0,82,0.00,,,0.04,,2013-02-06 07:01:00,
2013-02-06 07:11:00,1.0,-4.0,-100.00,WSW,245,7.0,8.0,82,0.00,,,0.04,,2013-02-06 07:11:00,
2013-02-06 07:21:00,4.0,0.0,-100.00,West,270,4.0,7.0,84,0.00,,,0.04,,2013-02-06 07:21:00,
2013-02-06 07:32:00,4.0,0.0,-100.00,West,280,3.0,4.0,84,0.00,,,0.04,,2013-02-06 07:32:00,
2013-02-06 07:41:00,3.0,0.0,-100.00,WSW,255,3.0,4.0,83,0.00,,,0.04,,2013-02-06 07:41:00,
2013-02-06 07:51:00,1.0,-2.0,-100.00,West,260,2.0,5.0,82,0.00,,,0.04,,2013-02-06 07:51:00,
2013-02-06 08:01:00,1.0,-4.0,-100.00,West,270,4.0,4.0,82,0.00,,,0.04,,2013-02-06 08:01:00,
2013-02-06 08:11:00,3.0,0.0,-100.00,SW,230,2.0,4.0,84,0.00,,,0.04,,2013-02-06 08:11:00,
2013-02-06 08:21:00,2.0,-2.0,-100.00,SW,225,0.0,2.0,83,0.00,,,0.04,,2013-02-06 08:21:00,
2013-02-06 08:31:00,2.0,-2.0,-100.00,SSW,195,0.0,1.0,83,0.00,,,0.04,,2013-02-06 08:31:00,
2013-02-06 08:41:00,2.0,-2.0,-100.00,South,185,0.0,0.0,83,0.00,,,0.04,,2013-02-06 08:41:00,
2013-02-06 08:53:00,2.0,-2.0,-100.00,SSE,160,1.0,2.0,83,0.00,,,0.04,,2013-02-06 08:53:00,
2013-02-06 09:01:00,0.0,-4.0,-100.00,SE,145,2.0,3.0,82,0.00,,,0.04,,2013-02-06 09:01:00,
2013-02-06 09:11:00,1.0,-2.0,-100.00,SE,145,2.0,3.0,82,0.00,,,0.04,,2013-02-06 09:11:00,
2013-02-06 09:21:00,0.0,-4.0,-100.00,SE,145,1.0,3.0,81,0.00,,,0.04,,2013-02-06 09:21:00,
2013-02-06 09:31:00,0.0,-4.0,-100.00,SSE,155,1.0,2.0,81,0.00,,,0.04,,2013-02-06 09:31:00,
2013-02-06 09:41:00,-1.0,-6.0,-100.00,SSE,150,2.0,3.0,81,0.00,,,0.04,,2013-02-06 09:41:00,
2013-02-06 09:51:00,-1.0,-6.0,-100.00,SSE,155,1.0,2.0,81,0.00,,,0.04,,2013-02-06 09:51:00,
2013-02-06 10:01:00,1.0,-4.0,-100.00,SSE,155,1.0,2.0,82,0.00,,,0.04,,2013-02-06 10:01:00,
2013-02-06 10:11:00,0.0,-4.0,-100.00,SSE,150,0.0,2.0,81,0.00,,,0.04,,2013-02-06 10:11:00,
2013-02-06 10:21:00,1.0,-2.0,-100.00,SE,140,1.0,3.0,82,0.00,,,0.04,,2013-02-06 10:21:00,
2013-02-06 10:31:00,0.0,-4.0,-100.00,SE,135,1.0,2.0,81,0.00,,,0.04,,2013-02-06 10:31:00,
2013-02-06 10:41:00,2.0,-2.0,-100.00,SE,135,2.0,5.0,83,0.00,,,0.04,,2013-02-06 10:41:00,
2013-02-06 10:51:00,4.0,0.0,-100.00,SSW,210,4.0,6.0,84,0.00,,,0.04,,2013-02-06 10:51:00,
2013-02-06 11:01:00,4.0,1.0,-100.00,SW,215,3.0,6.0,84,0.00,,,0.04,,2013-02-06 11:01:00,
2013-02-06 11:11:00,5.0,1.0,-100.00,SSW,195,4.0,5.0,84,0.00,,,0.03,,2013-02-06 11:11:00,
2013-02-06 11:22:00,6.0,1.0,-100.00,South,190,2.0,6.0,85,0.00,,,0.03,,2013-02-06 11:22:00,
2013-02-06 11:32:00,6.0,3.0,-100.00,SW,215,2.0,4.0,85,0.00,,,0.03,,2013-02-06 11:32:00,
2013-02-06 11:42:00,5.0,1.0,-100.00,SW,230,4.0,5.0,84,0.00,,,0.03,,2013-02-06 11:42:00,
2013-02-06 11:52:00,4.0,1.0,-100.00,SW,235,6.0,8.0,84,0.00,,,0.02,,2013-02-06 11:52:00,
2013-02-06 12:01:00,4.0,1.0,-100.00,SW,215,4.0,6.0,84,0.00,,,0.02,,2013-02-06 12:01:00,
2013-02-06 12:12:00,6.0,3.0,-100.00,South,190,4.0,7.0,85,0.00,,,0.02,,2013-02-06 12:12:00,
2013-02-06 12:22:00,7.0,3.0,-100.00,South,190,4.0,6.0,85,0.00,,,0.02,,2013-02-06 12:22:00,
2013-02-06 12:32:00,8.0,5.0,-100.00,SE,145,4.0,4.0,86,0.00,,,0.02,,2013-02-06 12:32:00,
2013-02-06 12:42:00,8.0,5.0,-100.00,SSE,150,4.0,6.0,86,0.00,,,0.01,,2013-02-06 12:42:00,
2013-02-06 12:52:00,8.0,5.0,-100.00,SE,145,3.0,5.0,86,0.00,,,0.01,,2013-02-06 12:52:00,
2013-02-06 13:01:00,9.0,5.0,-100.00,SE,145,3.0,4.0,86,0.00,,,0.01,,2013-02-06 13:01:00,
2013-02-06 13:11:00,9.0,5.0,-100.00,SE,140,3.0,4.0,87,0.00,,,0.01,,2013-02-06 13:11:00,
2013-02-06 13:22:00,10.0,7.0,-100.00,South,170,2.0,6.0,87,0.00,,,0.01,,2013-02-06 13:22:00,
2013-02-06 13:31:00,10.0,7.0,-100.00,SSE,155,4.0,5.0,87,0.00,,,0.01,,2013-02-06 13:31:00,
2013-02-06 13:42:00,11.0,9.0,-100.00,South,175,4.0,5.0,87,0.00,,,0.01,,2013-02-06 13:42:00,
2013-02-06 13:52:00,11.0,9.0,-100.00,SE,145,3.0,5.0,87,0.00,,,0.01,,2013-02-06 13:52:00,
2013-02-06 14:01:00,12.0,9.0,-100.00,SE,125,2.0,4.0,87,0.00,,,0.01,,2013-02-06 14:01:00,
2013-02-06 14:11:00,12.0,9.0,-100.00,South,185,5.0,6.0,87,0.00,,,0.01,,2013-02-06 14:11:00,
2013-02-06 14:21:00,13.0,10.0,-100.00,South,180,3.0,6.0,86,0.00,,,0.01,,2013-02-06 14:21:00,
2013-02-06 14:32:00,14.0,10.0,-100.00,SSE,165,6.0,8.0,84,0.00,,,0.01,,2013-02-06 14:32:00,
2013-02-06 14:41:00,14.0,10.0,-100.00,SSE,150,6.0,7.0,83,0.00,,,0.01,,2013-02-06 14:41:00,
2013-02-06 14:52:00,15.0,10.0,-100.00,SE,140,4.0,7.0,82,0.00,,,0.01,,2013-02-06 14:52:00,
2013-02-06 15:01:00,15.0,10.0,-100.00,SE,130,4.0,7.0,82,0.00,,,0.01,,2013-02-06 15:01:00,
2013-02-06 15:11:00,15.0,10.0,-100.00,SE,125,5.0,6.0,81,0.00,,,0.01,,2013-02-06 15:11:00,
2013-02-06 15:21:00,16.0,10.0,-100.00,SE,145,6.0,9.0,80,0.00,,,0.01,,2013-02-06 15:21:00,
2013-02-06 15:31:00,17.0,12.0,-100.00,SSE,150,6.0,8.0,79,0.00,,,0.01,,2013-02-06 15:31:00,
2013-02-06 15:41:00,17.0,12.0,-100.00,ESE,115,3.0,7.0,79,0.00,,,0.01,,2013-02-06 15:41:00,
2013-02-06 15:51:00,18.0,12.0,-100.00,SE,130,6.0,6.0,78,0.00,,,0.01,,2013-02-06 15:51:00,
2013-02-06 16:01:00,18.0,12.0,-100.00,ESE,115,6.0,7.0,77,0.00,,,0.01,,2013-02-06 16:01:00,
2013-02-06 16:11:00,18.0,12.0,-100.00,ESE,105,7.0,9.0,76,0.00,,,0.01,,2013-02-06 16:11:00,
2013-02-06 16:21:00,19.0,12.0,-100.00,ESE,105,9.0,11.0,76,0.00,,,0.01,,2013-02-06 16:21:00,
2013-02-06 16:32:00,20.0,14.0,-100.00,ESE,105,10.0,14.0,76,0.00,,,0.01,,2013-02-06 16:32:00,
2013-02-06 16:42:00,20.0,14.0,-100.00,ESE,110,9.0,12.0,76,0.00,,,0.01,,2013-02-06 16:42:00,
2013-02-06 16:51:00,20.0,14.0,-100.00,East,100,7.0,10.0,76,0.00,,,0.01,,2013-02-06 16:51:00,
2013-02-06 17:02:00,21.0,16.0,-100.00,SE,125,8.0,12.0,76,0.00,,,0.01,,2013-02-06 17:02:00,
2013-02-06 17:11:00,22.0,16.0,-100.00,ESE,120,9.0,12.0,77,0.00,,,0.01,,2013-02-06 17:11:00,
2013-02-06 17:21:00,22.0,16.0,-100.00,SE,125,11.0,14.0,77,0.00,,,0.01,,2013-02-06 17:21:00,
2013-02-06 17:32:00,23.0,18.0,-100.00,SE,130,11.0,14.0,79,0.00,,,0.01,,2013-02-06 17:32:00,
2013-02-06 17:41:00,24.0,19.0,-100.00,SE,125,11.0,14.0,79,0.00,,,0.01,,2013-02-06 17:41:00,
2013-02-06 17:52:00,24.0,18.0,-100.00,ESE,110,9.0,14.0,77,0.00,,,0.01,,2013-02-06 17:52:00,
2013-02-06 18:01:00,26.0,19.0,-100.00,SE,125,7.0,12.0,76,0.00,,,0.01,,2013-02-06 18:01:00,
2013-02-06 18:11:00,26.0,19.0,-100.00,ESE,120,7.0,11.0,75,0.00,,,0.01,,2013-02-06 18:11:00,
2013-02-06 18:23:00,27.0,19.0,-100.00,SE,125,9.0,12.0,75,0.00,,,0.01,,2013-02-06 18:23:00,
2013-02-06 18:32:00,27.0,21.0,-100.00,SE,140,12.0,15.0,75,0.00,,,0.01,,2013-02-06 18:32:00,
2013-02-06 18:41:00,28.0,21.0,-100.00,SE,140,13.0,18.0,74,0.00,,,0.01,,2013-02-06 18:41:00,
2013-02-06 18:52:00,29.0,21.0,-100.00,SE,130,14.0,17.0,74,0.00,,,0.01,,2013-02-06 18:52:00,
2013-02-06 19:01:00,29.0,23.0,-100.00,SE,125,15.0,18.0,74,0.00,,,0.01,,2013-02-06 19:01:00,
2013-02-06 19:11:00,29.0,21.0,-100.00,SE,135,13.0,19.0,74,0.00,,,0.01,,2013-02-06 19:11:00,
2013-02-06 19:21:00,30.0,23.0,-100.00,SE,135,12.0,16.0,74,0.00,,,0.01,,2013-02-06 19:21:00,
2013-02-06 19:31:00,31.0,23.0,-100.00,SE,130,10.0,18.0,74,0.00,,,0.01,,2013-02-06 19:31:00,
2013-02-06 19:41:00,31.0,23.0,-100.00,SE,130,7.0,14.0,74,0.00,,,0.01,,2013-02-06 19:41:00,
2013-02-06 19:52:00,31.0,23.0,-100.00,SE,140,8.0,12.0,73,0.00,,,0.00,,2013-02-06 19:52:00,
2013-02-06 20:01:00,31.0,23.0,-100.00,SE,130,6.0,11.0,73,0.00,,,0.00,,2013-02-06 20:01:00,
2013-02-06 20:11:00,31.0,23.0,-100.00,SE,130,6.0,7.0,73,0.00,,,0.00,,2013-02-06 20:11:00,
2013-02-06 20:21:00,31.0,25.0,-100.00,SSE,155,10.0,12.0,74,0.00,,,0.00,,2013-02-06 20:21:00,
2013-02-06 20:32:00,31.0,25.0,-100.00,SSE,150,9.0,12.0,74,0.00,,,0.00,,2013-02-06 20:32:00,
2013-02-06 20:41:00,32.0,25.0,-100.00,SE,135,7.0,10.0,72,0.00,,,0.00,,2013-02-06 20:41:00,
2013-02-06 20:52:00,32.0,25.0,-100.00,SE,125,6.0,9.0,74,0.00,,,0.00,,2013-02-06 20:52:00,
2013-02-06 21:01:00,32.0,25.0,-100.00,SE,130,7.0,9.0,74,0.00,,,0.00,,2013-02-06 21:01:00,
2013-02-06 21:11:00,32.0,25.0,-100.00,SE,135,7.0,9.0,74,0.00,,,0.00,,2013-02-06 21:11:00,
2013-02-06 21:21:00,32.0,25.0,-100.00,SE,135,9.0,12.0,75,0.00,,,0.00,,2013-02-06 21:21:00,
2013-02-06 21:32:00,32.0,25.0,-100.00,SE,135,11.0,16.0,75,0.00,,,0.00,,2013-02-06 21:32:00,
2013-02-06 21:41:00,31.0,25.0,-100.00,SE,130,9.0,12.0,77,0.00,,,0.00,,2013-02-06 21:41:00,
2013-02-06 21:51:00,32.0,25.0,-100.00,SE,125,9.0,12.0,76,0.00,,,0.00,,2013-02-06 21:51:00,
2013-02-06 22:01:00,31.0,25.0,-100.00,SE,130,9.0,13.0,77,0.00,,,0.00,,2013-02-06 22:01:00,
2013-02-06 22:11:00,32.0,25.0,-100.00,SE,130,10.0,13.0,77,0.00,,,0.00,,2013-02-06 22:11:00,
2013-02-06 22:21:00,31.0,25.0,-100.00,ESE,120,9.0,12.0,78,0.00,,,0.00,,2013-02-06 22:21:00,
2013-02-06 22:31:00,31.0,27.0,-100.00,ESE,120,9.0,12.0,79,0.00,,,0.00,,2013-02-06 22:31:00,
2013-02-06 22:41:00,31.0,27.0,-100.00,ESE,120,7.0,11.0,79,0.00,,,0.00,,2013-02-06 22:41:00,
2013-02-06 22:51:00,31.0,27.0,-100.00,ESE,115,6.0,10.0,79,0.00,,,0.00,,2013-02-06 22:51:00,
2013-02-06 23:01:00,31.0,27.0,-100.00,ESE,115,7.0,11.0,79,0.00,,,0.00,,2013-02-06 23:01:00,
2013-02-06 23:11:00,31.0,27.0,-100.00,ESE,115,7.0,11.0,80,0.00,,,0.00,,2013-02-06 23:11:00,
2013-02-06 23:21:00,31.0,27.0,-100.00,ESE,110,7.0,10.0,81,0.00,,,0.00,,2013-02-06 23:21:00,
2013-02-06 23:31:00,30.0,25.0,-100.00,East,100,6.0,9.0,83,0.00,,,0.00,,2013-02-06 23:31:00,
2013-02-06 23:41:00,30.0,27.0,-100.00,East,100,6.0,7.0,83,0.00,,,0.00,,2013-02-06 23:41:00,
2013-02-06 23:52:00,30.0,27.0,-100.00,East,95,7.0,8.0,83,0.00,,,0.00,,2013-02-06 23:52:00,